LEMUR-2-DRMUZZ

Last updated on June 27, 2017, 12:18 a.m. UTC

1 41595U 16019B   17176.73956864  .10739610  12600-4  40436-3 0  9991
2 41595  51.6070 299.8110 0008434 317.9127  42.8936 16.43514669 58161

Satellite is not in orbit.